Hourly Data Report for September 03, 2016

All times are specified in Local Standard Time (LST). Add 1 hour to adjust for Daylight Saving Time where and when it is observed.

CHARLOTTETOWN A
PRINCE EDWARD ISLAND

46°17'21.000" N
63°07'09.000" W
48.50 m
8300301
71706
YYG

Download Data

Hourly Data (September 2016)
Hourly Data Report for September 3, 2016
Temp Definition
°C
Dew Point Temp Definition
°C
Rel Hum Definition
%
Wind Dir Definition
10's deg

Wind Spd Definition
km/h
Visibility Definition
km
Stn Press Definition
kPa
Hmdx Definition


Wind Chill Definition


Weather Definition


TIME
00:00 Legend Double Dagger 11.9 9.8 87 30 8 24.1 101.21     LegendNANA
01:00 Legend Double Dagger 13.2 10.6 84 30 9 24.1 101.22     LegendNANA
02:00 Legend Double Dagger 13.2 10.4 83 30 7 24.1 101.19     Mostly Cloudy
03:00 Legend Double Dagger 12.8 10.9 88 28 11 24.1 101.19     LegendNANA
04:00 Legend Double Dagger 13.3 10.9 85 28 10 24.1 101.20     LegendNANA
05:00 Legend Double Dagger 13.0 10.4 84 31 6 24.1 101.23     Cloudy
06:00 Legend Double Dagger 13.0 10.6 85 31 6 24.1 101.26     LegendNANA
07:00 Legend Double Dagger 13.6 11.2 85 32 6 24.1 101.31     LegendNANA
08:00 Legend Double Dagger 13.7 11.3 85 32 4 24.1 101.35     Mostly Cloudy
09:00 Legend Double Dagger 16.1 12.7 80 3 12 24.1 101.37     LegendNANA
10:00 Legend Double Dagger 16.6 8.9 60 34 16 24.1 101.40     LegendNANA
11:00 Legend Double Dagger 17.9 10.1 60 34 14 24.1 101.38     Mostly Cloudy
12:00 Legend Double Dagger 17.4 9.9 61 36 14 24.1 101.38     LegendNANA
13:00 Legend Double Dagger 17.3 10.3 63 35 22 24.1 101.40     LegendNANA
14:00 Legend Double Dagger 17.7 9.9 60 33 29 24.1 101.45     Mostly Cloudy
15:00 Legend Double Dagger 17.4 10.1 62 36 25 24.1 101.49     LegendNANA
16:00 Legend Double Dagger 16.5 9.5 63 34 18 24.1 101.53     LegendNANA
17:00 Legend Double Dagger 16.1 8.9 62 34 13 24.1 101.53     Mainly Clear
18:00 Legend Double Dagger 14.8 8.1 64 35 9 24.1 101.58     LegendNANA
19:00 Legend Double Dagger 12.9 8.2 73 32 5 24.1 101.63     LegendNANA
20:00 Legend Double Dagger 10.5 8.9 90 35 3 24.1 101.71     Clear
21:00 Legend Double Dagger 9.4 8.0 91 36 3 24.1 101.75     LegendNANA
22:00 Legend Double Dagger 9.3 7.9 91 15 3 24.1 101.77     LegendNANA
23:00 Legend Double Dagger 7.4 6.2 92 36 2 24.1 101.79     Clear

Notes on Data Quality.

Legend

  • E = Estimated
  • M = Missing
  • NA = Not Available
  • ‡ = Partner data that is not subject to review by the National Climate Archives
Date modified: